Location: Sweet Grass
(48.9965°N, 111.9649°W)
Time: 02:32:06
(UTC+00:00)

Envisat - Pass Details

Date: 08 December 2022
Orbit: 763 x 765 km, 98.2° (Epoch: 28 January)

Event Time Altitude Azimuth Distance (km) Brightness Sun altitude
Rises 11:13:19 0° 19° (NNE) 3,245 6.5 -37.5°
Reaches altitude 10° 11:15:45 10° 26° (NNE) 2,314 5.8 -37.1°
Enters shadow 11:16:41 15° 31° (NNE) 1,973 5.4 -37.0°
